Flag for Canada Weather past 2 weeks in Kelowna, British Columbia, Canada

Now
90 °F

Sunny.


Feels Like: 89 °F
Forecast: 60 / 93 °F
Wind: 5 mph from South

Location: Kelowna Airport

Current Time: Aug 1, 2014 at 7:47:37 PM

Latest Report: Aug 1, 2014 at 7:00 PM


Visibility: 9 mi

Pressure: 29.87 "Hg

Humidity: 36%

Dew point: 59 °F

Location of KelownaLocation

Historic Weather in Kelowna — Graph

°F

Kelowna temperature yesterday

Maximum temperature yesterday: 93 °F (at 4:00 PM)
Minimum temperature yesterday: 54 °F (at 4:00 AM)
Average temperature yesterday: 74 °F

Past Weeks' High & Low Weather Summary

 TemperatureHumidityPressure
High95 °F (Jul 29, 4:00 PM)94% (Jul 23, 6:00 PM)30.19 "Hg (Jul 23, 6:00 PM)
Low48 °F (Jul 26, 6:00 AM)13% (Jul 30, 2:00 PM)29.68 "Hg (Jul 17, 7:00 PM)
Average70 °F53%29.96 "Hg
* Reported Jul 17 6:00 PM — Aug 1 6:00 PM, Kelowna, Weather by CustomWeather, © 2014

Note: Actual official high and low records may vary slightly from our data, if they occured in-between our weather recording intervals... More about our weather records

Advertising

Kelowna weather history for previous 24 hours

 ConditionsComfort  
Time TempWeatherWind HumidityBarometerVisibility
6:00 PM
Aug 1
95 °FSunny.2 mph20%29.87 "Hg9 mi
5:00 PM93 °FSunny.7 mph20%29.89 "Hg9 mi
4:00 PM93 °FSunny.9 mph20%29.91 "Hg9 mi
3:00 PM91 °FSunny.9 mph24%29.94 "Hg9 mi
2:00 PM90 °FSunny.7 mph24%29.96 "Hg9 mi
1:00 PM86 °FSunny.7 mph27%29.99 "Hg9 mi
12:00 PM82 °FSunny.2 mph30%30.01 "Hg9 mi
11:00 AM79 °FSunny.3 mph34%30.04 "Hg9 mi
10:00 AM75 °FSunny.3 mph36%30.05 "Hg9 mi
9:00 AM72 °FSunny.5 mph50%30.07 "Hg9 mi
8:00 AM68 °FSunny.No wind60%30.06 "Hg9 mi
7:00 AM61 °FSunny.2 mph72%30.06 "Hg9 mi
6:00 AM54 °FClear.2 mph88%30.06 "Hg9 mi
5:00 AM55 °FClear.2 mph82%30.04 "Hg9 mi
4:00 AM57 °FClear.2 mph77%30.03 "Hg9 mi
3:00 AM59 °FClear.No wind72%30.02 "Hg9 mi
2:00 AM59 °FClear.5 mph77%30.01 "Hg9 mi
1:00 AM61 °FClear.2 mph72%30.00 "Hg9 mi
12:00 AM63 °FClear.3 mph68%29.99 "Hg9 mi
11:00 PM
Jul 31
64 °FClear.3 mph64%29.98 "Hg9 mi
10:00 PM70 °FClear.2 mph57%29.96 "Hg9 mi
9:00 PM79 °FSunny.2 mph39%29.94 "Hg9 mi
8:00 PM84 °FSunny.12 mph31%29.92 "Hg9 mi
7:00 PM90 °FSunny.10 mph22%29.92 "Hg9 mi
Weather by CustomWeather, © 2014

See weather overviewHow to use our weather pages